Qianfan 05-15

operational
NORAD ID: 63173 Int'l Des: 2025-046 Owner: YUANX Country: CN Constellation: qianfan
LEOCIRCULARPOLAR

关于 Qianfan 05-15

正在加载描述...

实时位置

正在加载3D地球...

即将过境

高度历史

Altitude vs Time

uPlot chart will show altitude changes over time

两行轨道根数

1 63173U 25046Q 25349.93426946 .00000125 00000-0 17529-3 0 9998
2 63173 88.9762 319.5632 0013360 112.8119 247.4444 13.50975014 47912
Epoch: Dec 15, 2025 • Age: 16 hours

当前状态

高度 1092.2 km
速度 7.30 km/s
星下点 -39.09°S, 19.78°E
发射日期 Mar 11, 2025
运行时间 0.7 years
类型 internet

技术详情

分类 Payload
质量 267.00 kg
干质量 267.00 kg
总质量 267.00 kg
长度 0.30 m
直径 3.00 m
跨度 10.00 m
形状 Box+pan
制造商 GESIH
平台类型 Qianfan
阶段状态 In Orbit
所有者/国家 YUANX/CN

大型星座

Loading constellations...